Twin Falls, ID

7:08 AM MST on January 20, 2017 (GMT -0700)
Joslin Field-Magic Valley Regional

Weather History for KTWF - June, 2013

Change the Weather History Date:

Sunday, June 23, 2013

  Actual Average Record
Temperature  
Mean Temperature 68 °F -  
Max Temperature 87 °F 83 °F 100 °F (1990)
Min Temperature 49 °F 52 °F 41 °F (1984)
Degree Days  
Heating Degree Days 0 2  
Month to date heating degree days 55 81  
Since 1 June heating degree days 55 81  
Since 1 July heating degree days 5737 6165  
Cooling Degree Days 3 4  
Month to date cooling degree days 101 54  
Year to date cooling degree days 126 76  
Since 1 June cooling degree days 101 54  
Growing Degree Days 18 (Base 50)    
Moisture  
Dew Point 39 °F    
Average Humidity 36    
Maximum Humidity 56    
Minimum Humidity 16    
Precipitation  
Precipitation 0.00 in 0.02 in 0.02 in (1989)
Month to date precipitation 0.08 0.79  
Year to date precipitation 2.93 6.12  
Sea Level Pressure  
Sea Level Pressure 29.68 in    
Wind  
Wind Speed 10 mph (East)    
Max Wind Speed 25 mph    
Max Gust Speed 33 mph    
Visibility 10 miles    
Events      
T = Trace of Precipitation, MM = Missing Value Source: NWS Daily Summary

Daily Weather History Graph

Daily Weather History Graph

Search for Another Location

Airport or City:

Trip Planner

Search our weather history database for the weather conditions in past years. The results will help you decide how hot, cold, wet, or windy it might be!

Date:

Astronomy

Jun. 23, 2013 Rise Set
Actual Time 6:01 AM MDT 9:19 PM MDT
Civil Twilight 5:26 AM MDT 9:54 PM MDT
Nautical Twilight 4:41 AM MDT 10:39 PM MDT
Astronomical Twilight 3:45 AM MDT 11:34 PM MDT
Moon 9:33 PM MDT (6/23) 6:25 AM MDT (6/23)
Length of Visible Light 16h 27m
Length of Day
15h 17m
Full, 100% of the Moon is Illuminated
Jun 23
Full
Jun 29
Last Quarter
Jul 8
New
Jul 15
First Quarter
Jul 22
Full

Hourly Weather History & Observations

Time (MDT) Temp. Dew Point Humidity Pressure Visibility Wind Dir Wind Speed Gust Speed Precip Events Conditions
12:53 AM 55.0 °F 34.0 °F 45% 29.88 in 10.0 mi South 11.5 mph - N/A   Clear
1:53 AM 52.0 °F 34.0 °F 50% 29.86 in 10.0 mi South 9.2 mph - N/A   Clear
2:53 AM 52.0 °F 35.1 °F 53% 29.84 in 10.0 mi South 10.4 mph - N/A   Clear
3:53 AM 51.1 °F 35.1 °F 54% 29.83 in 10.0 mi South 10.4 mph - N/A   Clear
4:53 AM 48.9 °F 34.0 °F 56% 29.82 in 10.0 mi South 8.1 mph - N/A   Clear
5:53 AM 52.0 °F 34.0 °F 50% 29.81 in 10.0 mi South 9.2 mph - N/A   Clear
6:53 AM 52.0 °F 36.0 °F 54% 29.81 in 10.0 mi ENE 4.6 mph - N/A   Clear
7:53 AM 59.0 °F 37.0 °F 44% 29.79 in 10.0 mi East 3.5 mph - N/A   Clear
8:53 AM 62.1 °F 39.0 °F 43% 29.80 in 10.0 mi ENE 4.6 mph - N/A   Clear
9:53 AM 68.0 °F 37.9 °F 33% 29.79 in 10.0 mi NE 9.2 mph - N/A   Clear
10:53 AM 70.0 °F 44.1 °F 39% 29.76 in 10.0 mi ENE 12.7 mph - N/A   Clear
11:53 AM 75.0 °F 43.0 °F 32% 29.73 in 10.0 mi ENE 11.5 mph - N/A   Clear
12:53 PM 75.9 °F 46.0 °F 35% 29.69 in 10.0 mi ENE 12.7 mph - N/A   Clear
1:53 PM 82.0 °F 39.0 °F 22% 29.66 in 10.0 mi NNE 13.8 mph - N/A   Clear
2:53 PM 84.9 °F 34.0 °F 16% 29.61 in 10.0 mi NNE 15.0 mph - N/A   Clear
3:53 PM 86.0 °F 36.0 °F 17% 29.58 in 10.0 mi NNE 13.8 mph - N/A   Clear
4:53 PM 87.1 °F 37.0 °F 17% 29.55 in 10.0 mi NE 13.8 mph - N/A   Clear
5:53 PM 86.0 °F 39.9 °F 20% 29.52 in 10.0 mi ENE 15.0 mph 19.6 mph N/A   Clear
6:53 PM 77.0 °F 48.9 °F 37% 29.53 in 10.0 mi ENE 8.1 mph - N/A   Clear
7:53 PM 78.1 °F 46.0 °F 32% 29.50 in 10.0 mi NNW 4.6 mph - N/A   Clear
8:53 PM 77.0 °F 46.0 °F 33% 29.49 in 10.0 mi Calm Calm - N/A   Clear
9:53 PM 80.1 °F 35.1 °F 20% 29.52 in 10.0 mi South 20.7 mph 29.9 mph N/A   Overcast
10:53 PM 72.0 °F 39.9 °F 31% 29.52 in 10.0 mi SSW 8.1 mph - N/A   Partly Cloudy
11:53 PM 70.0 °F 39.0 °F 32% 29.53 in 10.0 mi WSW 13.8 mph - N/A   Clear